Other Public Products
Issued by NWS Charleston, SC

Current Version | Previous Version | Graphics & Text | Print | Product List | Glossary On
Versions: 1 2 3 4 5 6 7 8 9 10 11 12 13 14 15 16 17 18 19 20 21 22 23 24 25 26 27 28 29 30 31 32 33 34 35 36 37 38 39 40 41 42 43 44 45 46 47 48 49 50
000
FPUS82 KCHS 180413
OPUCHS

TEST...KCHS/KSAV Gateway Observations...TEST
National Weather Service Charleston SC
1200 AM EDT FRI AUG 18 2017

NOTE: "fair" indicates few or no clouds below 12,000 feet with no
significant weather and/or obstructions to visibility.

SCZ050-WAZ558-NCZ071-TXZ119-213-PAZ071-DCZ001-FLZ074-172-MI076-
NYZ176-178-MAZ016-IL014-TNZ027-NJZ106-GAZ044-MD014-180500-

...Gateway Observations for Charleston International...

CITY           SKY/WX    TMP DP  RH WIND       PRES   REMARKS
Chas Airport   PTCLDY    82  79  90 S7        29.98F HX  92
Seattle        PTCLDY    67  55  65 NW5       30.15R
Charlotte      PTCLDY    79  76  90 N3        29.98F
Dallas DFW     CLOUDY    77  71  82 E3        29.98S
Dallas Love    CLOUDY    80  68  66 CALM      29.99F
Philladelphia  PTCLDY    76  71  85 SE7       29.95F
Wash National  MOCLDY    80  75  84 S9        29.93F
Baltimore      MOCLDY    75  73  93 CALM      29.92F
Miami          MOCLDY    86  75  69 SE5       30.07S HX  95
Detroit        PTCLDY    75  69  81 SW10      29.76S
Newark         CLOUDY    74  72  93 S5        29.96F
Laguardia      CLOUDY    76  73  91 S9        29.97F
J F K          CLOUDY    76  75  97 SE8       29.98F
Boston Logan   CLOUDY    69  56  62 SW9       30.00S
Ft. Lauderdale MOCLDY    86  77  74 SE6       30.05F HX  97
Chicago O`Hare PTCLDY    73  63  70 W13       29.77F
Chicago Midway PTCLDY    76  64  66 W14       29.78F
Houston Bush   CLEAR     85  73  67 S8        30.02R HX  91
Houston Hobby  CLEAR     84  76  76 S6        30.02R HX  93
Nashville      CLOUDY    78  75  90 W3        29.95R
Atlanta        CLEAR     79  72  79 SW5       30.04S

$$

GAZ044-118-TXZ119-213-NCZ071-DCZ001-MDZ014-506-PAZ021-071-NJZ106-
NYZ176-178-MAZ106-OHZ011-021-055-MIZ076-KYZ091-ILZ014-INZ047-
MNZ060-ONZ431-180500-

...Gateway Observations for Savannah International...

CITY           SKY/WX    TMP DP  RH WIND       PRES   REMARKS
Savannah Arpt  PTCLDY    82  74  76 SW7       30.01S
Atlanta        CLEAR     79  72  79 SW5       30.04S
Charlotte      PTCLDY    79  76  90 N3        29.98F
Dallas DFW     CLOUDY    77  71  82 E3        29.98S
Houston Bush   CLEAR     85  73  67 S8        30.02R HX  91
Wash National  MOCLDY    80  75  84 S9        29.93F
Wash Dulles    CLOUDY    79  74  84 S9        29.91F
Baltimore      MOCLDY    75  73  93 CALM      29.92F
Philadelphia   PTCLDY    76  71  85 SE7       29.95F
Newark         CLOUDY    74  72  93 S5        29.96F
Laguardia      CLOUDY    76  73  91 S9        29.97F
J F K          CLOUDY    76  75  97 SE8       29.98F
Boston         CLOUDY    69  56  62 SW9       30.00S
Pittsburg      CLOUDY    73  70  90 SW7       29.89R
Akron          PTCLDY    74  69  85 SW9       29.86R
Cleveland      PTCLDY    77  72  84 SW10      29.82S
Cincinnati     CLOUDY    73  73 100 SW7       29.89S
Columbus       CLOUDY    73  73 100 SW7       29.86S
Detroit        PTCLDY    75  69  81 SW10      29.76S
Chicago O`Hare PTCLDY    73  63  70 W13       29.77F
Minneapolis    PTCLDY    66  58  75 NW7       29.84S
Indianapolis   PTCLDY    74  69  85 SW9       29.85S
Toronto Canada CLOUDY    70  68  94 VRB2      29.73F FOG

$$




USA.gov is the U.S. government's official web portal to all federal, state and local government web resources and services.